Location: Alsip
(41.6689°N, 87.7387°W)
Time: 14:52:22
(UTC+00:00)

Lacrosse 5 rocket - Pass Details

Date: 14 July 2020
Orbit: 465 x 632 km, 57.0° (Epoch: 12 August)

Event Time Altitude Azimuth Distance (km) Brightness Sun altitude
Rises 04:32:25 0° 315° (NW) 2,711 6.0 -23.8°
Reaches altitude 10° 04:34:43 10° 317° (NW) 1,786 4.8 -23.9°
Enters shadow 04:38:13 63° 344° (NNW) 576 1.5 -24.2°
